• Join FlightAware (Why Join?)
  • Login
  • US Flag GB Flag 
17:46 EDT


 

Airport Tracker/Info


-or-


 

Live Flight TrackerFlight Track Log ✈ RPA3275 ✈ 18-Sep-2013 ✈ KALB - KPHL

Flight Track Log - Related Links

Times and Time Zones

All times are in EDT time to prevent confusion due to time zone crossing. See the RPA3275 flight status page for this flight to view local times or setup timezone preferences in your user account.

Time Position Orientation Groundspeed Altitude Reporting Facility
EDT Latitude Longitude Course Direction KTS MPH feet Rate Location/Type
07:12 42.7653 -73.8061 220° Southwest 135 155 1,200  Level Boston Center
07:12 42.7672 -73.8061 360° North 136 157 1,400 1,920 Climbing Boston Center
07:13 42.7961 -73.8464 314° West 203 234 3,300 2,340 Climbing Boston Center
07:14 42.7864 -73.9422 262° West 269 310 6,100 2,340 Climbing Boston Center
07:14 42.7842 -73.9508 251° West 269 310 6,100 2,640 Level Boston Center
07:15 42.4688 -73.9483 220° Southwest  Level Estimated
07:15 42.7767 -74.0467 264° West 299 344 9,100  Level Boston Center
07:16 42.3736 -73.9977 223° Southwest  Level Estimated
07:16 42.7603 -74.1708 260° West 309 356 11,500  Level Boston Center
07:17 42.2785 -74.0469 220° Southwest  Level Estimated
07:17 42.7481 -74.2864 262° West 314 361 14,100  Level Boston Center
07:18 42.6883 -74.3722 227° Southwest 307 353 16,000 900 Climbing Boston Center
07:19 42.6181 -74.4544 221° Southwest 317 365 16,000  Level Boston Center
07:20 42.5500 -74.5342 221° Southwest 327 376 16,000  Level Boston Center
07:21 42.4817 -74.6106 220° Southwest 327 376 16,000  Level Boston Center
07:22 42.4114 -74.6897 220° Southwest 332 382 16,000  Level Boston Center
07:24 42.2933 -74.8272 221° Southwest 324 373 16,000  Level New York Center
07:25 42.2261 -74.9044 220° Southwest 324 373 16,000  Level New York Center
07:26 42.1461 -74.9889 218° Southwest 324 373 16,000  Level New York Center
07:27 42.0711 -75.0511 212° Southwest 329 379 16,000  Level New York Center
07:28 41.9939 -75.1131 211° Southwest 329 379 16,000  Level New York Center
07:29 41.9253 -75.1669 210° Southwest 329 379 16,000  Level New York Center
07:30 41.8478 -75.2314 212° Southwest 322 371 16,000  Level New York Center
07:31 41.7642 -75.2981 211° Southwest 327 376 16,000  Level New York Center
07:32 41.6869 -75.3594 211° Southwest 327 376 16,000 -240 Level New York Center
07:33 41.6117 -75.4211 211° Southwest 327 376 15,600 -1,080 Descending New York Center
07:34 41.5428 -75.4772 211° Southwest 327 376 13,900 -1,800 Descending New York Center
07:35 41.4631 -75.5408 211° Southwest 317 365 12,100 -960 Descending New York Center
07:36 41.3900 -75.5992 211° Southwest 317 365 12,000 -60 Descending New York Center
07:37 41.3169 -75.6547 210° Southwest 317 365 12,000  Level New York Center
07:38 41.2383 -75.6903 199° South 304 350 12,000  Level New York Center
07:39 41.1639 -75.6739 171° South 290 334 12,000  Level New York Center
07:40 41.0839 -75.6489 167° South 295 339 12,000  Level New York Center
07:41 41.0017 -75.6211 166° South 302 348 12,000  Level New York Center
07:42 40.9214 -75.5933 165° South 302 348 12,000  Level New York Center
07:43 40.8331 -75.5625 165° South 302 348 12,000  Level New York Center
07:44 40.7508 -75.5347 166° South 302 348 12,000  Level New York Center
07:45 40.6686 -75.5072 166° South 302 348 12,000  Level New York Center
07:46 40.5886 -75.4797 165° South 302 348 12,000 -600 Level New York Center
07:47 40.5064 -75.4522 166° South 302 348 10,900 -1,440 Descending New York Center
07:48 40.4306 -75.4197 162° South 296 341 9,200 -1,140 Descending New York Center
07:49 40.3653 -75.3828 157° South 291 335 8,700 -1,140 Descending New York Center
07:50 40.2939 -75.3425 157° South 282 325 7,000 -1,380 Descending New York Center
07:51 40.2183 -75.2994 156° South 277 319 6,000 -540 Descending New York Center
07:52 40.1561 -75.2358 142° Southeast 278 320 6,000  Level New York Center
07:53 40.1167 -75.1667 127° Southeast 274 315 6,000  Level Philadelphia TRACON
07:54 40.0500 -75.1000 143° Southeast 272 313 6,000 -360 Level Philadelphia TRACON
07:55 40.0167 -75.0333 123° Southeast 209 241 5,300 -900 Descending Philadelphia TRACON
07:56 39.9667 -75.0167 166° South 187 215 4,200 -1,260 Descending Philadelphia TRACON
07:57 39.9167 -75.0500 207° Southwest 189 217 2,800 -1,200 Descending Philadelphia TRACON
07:58 39.9000 -75.1167 252° West 176 203 1,800 -900 Descending Philadelphia TRACON
07:59 39.8833 -75.1667 247° West 124 143 1,000 -780 Descending Philadelphia TRACON
08:00 39.8833 -75.2000 270° West 127 146 300 -720 Descending Philadelphia TRACON